Location: B?lite?ti
(46.2833°N, 22.7333°E)
Time: 17:14:53
(UTC+00:00)

H-2A R/B - Pass Details

Date: 24 January 2021
Orbit: 577 x 655 km, 98.5° (Epoch: 28 February)

Event Time Altitude Azimuth Distance (km) Brightness Sun altitude
Rises 16:19:41 0° 11° (N) 2,964 5.3 -10.0°
Reaches altitude 10° 16:21:57 10° 8° (N) 2,040 4.5 -10.4°
Maximum altitude 16:26:19 61° 289° (WNW) 716 2.6 -11.1°
Drops below altitude 10° 16:30:34 10° 208° (SSW) 1,978 5.3 -11.8°
Sets 16:32:43 0° 205° (SSW) 2,865 6.1 -12.2°
